Location: Glencliff
(36.1226°N, 86.7183°W)
Time: 22:50:09
(UTC+00:00)

Cosmos 2082 Rocket - Pass Details

Date: 25 August 2019
Orbit: 832 x 855 km, 71.0° (Epoch: 17 September)

Event Time Altitude Azimuth Distance (km) Brightness Sun altitude
Exits shadow 02:30:18 26° 191° (SSW) 1,584 3.4 -23.7°
Maximum altitude 02:33:33 77° 110° (ESE) 862 2.0 -24.2°
Drops below altitude 10° 02:39:12 10° 25° (NNE) 2,467 4.7 -25.1°
Sets 02:41:40 0° 24° (NNE) 3,409 5.5 -25.5°
